Weather Roundup
Issued by NWS Springfield, MO

Home | Current Version | Previous Version | Text Only | Print | Product List | Glossary On
Versions: 1 2 3 4 5 6 7 8 9 10 11 12 13 14 15 16 17 18 19 20 21 22 23 24 25 26 27 28 29 30 31 32 33 34 35 36 37 38 39 40 41 42 43 44 45 46 47 48 49 50
000
NZUS99 KSGF 272357
HRRSGF

HOURLY WEATHER
NATIONAL WEATHER SERVICE SPRINGFIELD MO
700 PM CDT MON MAR 27 2017

......SGF CWA......

CITY           SKY/WX    TMP DP  RH WIND       PRES   REMARKS
SPRINGFIELD    CLOUDY    53  50  89 NW6       29.91R
6HR MIN TEMP:  53; 6HR MAX TEMP:  61;

JOPLIN         CLOUDY    52  50  93 NW6       29.94R
6HR MIN TEMP:  52; 6HR MAX TEMP:  55;

WEST PLAINS    PTCLDY    63  52  67 NW12      29.86R
6HR MIN TEMP:  59; 6HR MAX TEMP:  67; 6HR PCP:  0.03;

ROLLA          CLOUDY    55  54  96 NW9       29.87R
6HR MIN TEMP:  55; 6HR MAX TEMP:  61; 6HR PCP: TRACE;

BRANSON        MOCLDY    55  52  88 NW8       29.91R

......SURROUNDING SGF CWA......

CITY           SKY/WX    TMP DP  RH WIND       PRES   REMARKS
CHANUTE        CLOUDY    54  47  77 N7        29.94R
PARSONS        CLOUDY    56  47  71 N6        29.94R
COFFEYVILLE    CLOUDY    56  49  77 N7        29.93R
EMPORIA        CLOUDY    55  47  74 NE8       29.92S
ROGERS AR      CLOUDY    54  50  87 NW5       29.92R
HARRISON AR    PTCLDY    58  52  80 NW8       29.89R

......KANSAS AND MISSOURI......

CITY           SKY/WX    TMP DP  RH WIND       PRES   REMARKS
KANSAS CTY INT MOCLDY    52  46  80 N9        29.94R
COLUMBIA       LGT RAIN  54  54 100 NW5       29.88S FOG
SEDALIA        CLOUDY    53  50  89 N12       29.92R
ST JOSEPH      CLOUDY    52  46  80 N12       29.95R
ST LOUIS       CLOUDY    58  52  80 NW7       29.87R
WICHITA        CLOUDY    54  46  74 NE10      29.92S
TOPEKA         CLOUDY    55  48  77 N7        29.94R
OLATHE         CLOUDY    52  47  83 N6        29.93R

......TENNESSEE......

CITY           SKY/WX    TMP DP  RH WIND       PRES   REMARKS
MEMPHIS        NOT AVBL
NASHVILLE      TSTM      61  58  90 E7        29.89R

......ARKANSAS.......

CITY           SKY/WX    TMP DP  RH WIND       PRES   REMARKS
FAYETTEVILLE   CLOUDY    53  50  89 NW7       29.92R
FT SMITH       CLOUDY    61  50  67 NW9       29.90R
LITTLE ROCK    PTCLDY    72  57  59 NW16      29.82R

......OKLAHOMA.......

CITY           SKY/WX    TMP DP  RH WIND       PRES   REMARKS
TULSA          CLOUDY    61  49  64 NE8       29.90S
PONCA CITY     PTCLDY    57  46  66 NE8       29.92R
MCALESTER      PTCLDY    67  50  54 VRB6      29.89R
OKLAHOMA CITY  PTCLDY    68  45  43 N6        29.88S

......IOWA............

CITY           SKY/WX    TMP DP  RH WIND       PRES   REMARKS
DES MOINES     NOT AVBL
QUAD CITIES    CLOUDY    52  45  77 NE8       29.91R

......ILLINOIS........

CITY           SKY/WX    TMP DP  RH WIND       PRES   REMARKS
QUINCY         CLOUDY    54  50  87 N13       29.90R
CHICAGO        CLOUDY    45  39  79 NE8       29.93R



USA.gov is the U.S. government's official web portal to all federal, state and local government web resources and services.